Year,Month,Day,Hour,Minute,Value (Times are PST for temperature in C)
2012,08,16,00,00,19.00
2012,08,16,00,01,19.00
2012,08,16,00,02,18.90
2012,08,16,00,03,18.80
2012,08,16,00,04,18.70
2012,08,16,00,05,18.60
2012,08,16,00,06,18.50
2012,08,16,00,07,18.40
2012,08,16,00,08,18.30
2012,08,16,00,09,18.20
2012,08,16,00,10,18.20
2012,08,16,00,11,18.20
2012,08,16,00,12,18.20
2012,08,16,00,13,18.30
2012,08,16,00,14,18.40
2012,08,16,00,15,18.40
2012,08,16,00,16,18.50
2012,08,16,00,17,18.60
2012,08,16,00,18,18.60
2012,08,16,00,19,18.70
2012,08,16,00,20,18.80
2012,08,16,00,21,18.90
2012,08,16,00,22,19.00
2012,08,16,00,23,19.10
2012,08,16,00,24,19.20
2012,08,16,00,25,19.30
2012,08,16,00,26,19.40
2012,08,16,00,27,19.40
2012,08,16,00,28,19.50
2012,08,16,00,29,19.60
2012,08,16,00,30,19.60
2012,08,16,00,31,19.70
2012,08,16,00,32,19.70
2012,08,16,00,33,19.70
2012,08,16,00,34,19.70
2012,08,16,00,35,19.80
2012,08,16,00,36,19.80
2012,08,16,00,37,19.80
2012,08,16,00,38,19.80
2012,08,16,00,39,19.80
2012,08,16,00,40,19.80
2012,08,16,00,41,19.80
2012,08,16,00,42,19.80
2012,08,16,00,43,19.80
2012,08,16,00,44,19.80
2012,08,16,00,45,19.80
2012,08,16,00,46,19.80
2012,08,16,00,47,19.80
2012,08,16,00,48,19.80
2012,08,16,00,49,19.70
2012,08,16,00,50,19.70
2012,08,16,00,51,19.60
2012,08,16,00,52,19.50
2012,08,16,00,53,19.40
2012,08,16,00,54,19.30
2012,08,16,00,55,19.20
2012,08,16,00,56,19.00
2012,08,16,00,57,18.90
2012,08,16,00,58,18.70
2012,08,16,00,59,18.50
2012,08,16,01,00,18.40
2012,08,16,01,01,18.20
2012,08,16,01,02,18.10
2012,08,16,01,03,18.10
2012,08,16,01,04,18.00
2012,08,16,01,05,18.00
2012,08,16,01,06,17.90
2012,08,16,01,07,17.80
2012,08,16,01,08,17.80
2012,08,16,01,09,17.70
2012,08,16,01,10,17.60
2012,08,16,01,11,17.50
2012,08,16,01,12,17.50
2012,08,16,01,13,17.50
2012,08,16,01,14,17.60
2012,08,16,01,15,17.60
2012,08,16,01,16,17.50
2012,08,16,01,17,17.50
2012,08,16,01,18,17.50
2012,08,16,01,19,17.50
2012,08,16,01,20,17.50
2012,08,16,01,21,17.50
2012,08,16,01,22,17.50
2012,08,16,01,23,17.50
2012,08,16,01,24,17.40
2012,08,16,01,25,17.40
2012,08,16,01,26,17.40
2012,08,16,01,27,17.40
2012,08,16,01,28,17.30
2012,08,16,01,29,17.30
2012,08,16,01,30,17.30
2012,08,16,01,31,17.30
2012,08,16,01,32,17.40
2012,08,16,01,33,17.50
2012,08,16,01,34,17.60
2012,08,16,01,35,17.70
2012,08,16,01,36,17.70
2012,08,16,01,37,17.80
2012,08,16,01,38,17.80
2012,08,16,01,39,17.90
2012,08,16,01,40,17.90
2012,08,16,01,41,17.80
2012,08,16,01,42,17.80
2012,08,16,01,43,17.70
2012,08,16,01,44,17.70
2012,08,16,01,45,17.70
2012,08,16,01,46,17.70
2012,08,16,01,47,17.80
2012,08,16,01,48,17.80
2012,08,16,01,49,17.90
2012,08,16,01,50,18.00
2012,08,16,01,51,18.00
2012,08,16,01,52,18.00
2012,08,16,01,53,18.00
2012,08,16,01,54,18.00
2012,08,16,01,55,17.90
2012,08,16,01,56,17.80
2012,08,16,01,57,17.80
2012,08,16,01,58,17.70
2012,08,16,01,59,17.70
2012,08,16,02,00,17.60
2012,08,16,02,01,17.50
2012,08,16,02,02,17.40
2012,08,16,02,03,17.30
2012,08,16,02,04,17.20
2012,08,16,02,05,17.10
2012,08,16,02,06,17.00
2012,08,16,02,07,16.90
2012,08,16,02,08,16.80
2012,08,16,02,09,16.70
2012,08,16,02,10,16.70
2012,08,16,02,11,16.60
2012,08,16,02,12,16.60
2012,08,16,02,13,16.60
2012,08,16,02,14,16.50
2012,08,16,02,15,16.50
2012,08,16,02,16,16.40
2012,08,16,02,17,16.40
2012,08,16,02,18,16.40
2012,08,16,02,19,16.40
2012,08,16,02,20,16.30
2012,08,16,02,21,16.30
2012,08,16,02,22,16.30
2012,08,16,02,23,16.20
2012,08,16,02,24,16.30
2012,08,16,02,25,16.40
2012,08,16,02,26,16.50
2012,08,16,02,27,16.60
2012,08,16,02,28,16.60
2012,08,16,02,29,16.60
2012,08,16,02,30,16.60
2012,08,16,02,31,16.60
2012,08,16,02,32,16.60
2012,08,16,02,33,16.60
2012,08,16,02,34,16.60
2012,08,16,02,35,16.50
2012,08,16,02,36,16.40
2012,08,16,02,37,16.40
2012,08,16,02,38,16.30
2012,08,16,02,39,16.20
2012,08,16,02,40,16.20
2012,08,16,02,41,16.10
2012,08,16,02,42,16.00
2012,08,16,02,43,16.00
2012,08,16,02,44,15.90
2012,08,16,02,45,15.90
2012,08,16,02,46,15.80
2012,08,16,02,47,15.80
2012,08,16,02,48,15.90
2012,08,16,02,49,15.90
2012,08,16,02,50,15.90
2012,08,16,02,51,16.00
2012,08,16,02,52,16.00
2012,08,16,02,53,16.10
2012,08,16,02,54,16.10
2012,08,16,02,55,16.10
2012,08,16,02,56,16.10
2012,08,16,02,57,16.10
2012,08,16,02,58,16.20
2012,08,16,02,59,16.30
2012,08,16,03,00,16.30
2012,08,16,03,01,16.30
2012,08,16,03,02,16.40
2012,08,16,03,03,16.50
2012,08,16,03,04,16.50
2012,08,16,03,05,16.70
2012,08,16,03,06,16.80
2012,08,16,03,07,17.00
2012,08,16,03,08,17.10
2012,08,16,03,09,17.20
2012,08,16,03,10,17.20
2012,08,16,03,11,17.20
2012,08,16,03,12,17.20
2012,08,16,03,13,17.30
2012,08,16,03,14,17.30
2012,08,16,03,15,17.40
2012,08,16,03,16,17.50
2012,08,16,03,17,17.70
2012,08,16,03,18,17.70
2012,08,16,03,19,17.80
2012,08,16,03,20,17.80
2012,08,16,03,21,17.80
2012,08,16,03,22,17.80
2012,08,16,03,23,17.80
2012,08,16,03,24,17.90
2012,08,16,03,25,18.00
2012,08,16,03,26,18.10
2012,08,16,03,27,18.10
2012,08,16,03,28,18.20
2012,08,16,03,29,18.30
2012,08,16,03,30,18.30
2012,08,16,03,31,18.40
2012,08,16,03,32,18.50
2012,08,16,03,33,18.50
2012,08,16,03,34,18.50
2012,08,16,03,35,18.40
2012,08,16,03,36,18.40
2012,08,16,03,37,18.50
2012,08,16,03,38,18.50
2012,08,16,03,39,18.60
2012,08,16,03,40,18.60
2012,08,16,03,41,18.60
2012,08,16,03,42,18.60
2012,08,16,03,43,18.60
2012,08,16,03,44,18.50
2012,08,16,03,45,18.40
2012,08,16,03,46,18.40
2012,08,16,03,47,18.40
2012,08,16,03,48,18.30
2012,08,16,03,49,18.20
2012,08,16,03,50,18.20
2012,08,16,03,51,18.10
2012,08,16,03,52,18.10
2012,08,16,03,53,18.00
2012,08,16,03,54,17.90
2012,08,16,03,55,17.90
2012,08,16,03,56,17.80
2012,08,16,03,57,17.70
2012,08,16,03,58,17.70
2012,08,16,03,59,17.60
2012,08,16,04,00,17.50
2012,08,16,04,01,17.50
2012,08,16,04,02,17.40
2012,08,16,04,03,17.40
2012,08,16,04,04,17.40
2012,08,16,04,05,17.30
2012,08,16,04,06,17.30
2012,08,16,04,07,17.30
2012,08,16,04,08,17.30
2012,08,16,04,09,17.30
2012,08,16,04,10,17.30
2012,08,16,04,11,17.30
2012,08,16,04,12,17.40
2012,08,16,04,13,17.40
2012,08,16,04,14,17.40
2012,08,16,04,15,17.40
2012,08,16,04,16,17.40
2012,08,16,04,17,17.40
2012,08,16,04,18,17.40
2012,08,16,04,19,17.40
2012,08,16,04,20,17.30
2012,08,16,04,21,17.30
2012,08,16,04,22,17.20
2012,08,16,04,23,17.20
2012,08,16,04,24,17.20
2012,08,16,04,25,17.10
2012,08,16,04,26,17.20
2012,08,16,04,27,17.10
2012,08,16,04,28,17.20
2012,08,16,04,29,17.20
2012,08,16,04,30,17.30
2012,08,16,04,31,17.40
2012,08,16,04,32,17.50
2012,08,16,04,33,17.60
2012,08,16,04,34,17.60
2012,08,16,04,35,17.70
2012,08,16,04,36,17.80
2012,08,16,04,37,17.80
2012,08,16,04,38,17.90
2012,08,16,04,39,17.90
2012,08,16,04,40,17.80
2012,08,16,04,41,17.80
2012,08,16,04,42,17.80
2012,08,16,04,43,17.70
2012,08,16,04,44,17.70
2012,08,16,04,45,17.60
2012,08,16,04,46,17.60
2012,08,16,04,47,17.50
2012,08,16,04,48,17.40
2012,08,16,04,49,17.40
2012,08,16,04,50,17.30
2012,08,16,04,51,17.30
2012,08,16,04,52,17.20
2012,08,16,04,53,17.10
2012,08,16,04,54,17.00
2012,08,16,04,55,17.00
2012,08,16,04,56,17.00
2012,08,16,04,57,16.90
2012,08,16,04,58,16.90
2012,08,16,04,59,17.00
2012,08,16,05,00,17.00
2012,08,16,05,01,17.10
2012,08,16,05,02,17.10
2012,08,16,05,03,17.20
2012,08,16,05,04,17.20
2012,08,16,05,05,17.10
2012,08,16,05,06,17.10
2012,08,16,05,07,17.20
2012,08,16,05,08,17.20
2012,08,16,05,09,17.10
2012,08,16,05,10,17.10
2012,08,16,05,11,17.10
2012,08,16,05,12,17.20
2012,08,16,05,13,17.20
2012,08,16,05,14,17.20
2012,08,16,05,15,17.20
2012,08,16,05,16,17.30
2012,08,16,05,17,17.30
2012,08,16,05,18,17.30
2012,08,16,05,19,17.30
2012,08,16,05,20,17.30
2012,08,16,05,21,17.30
2012,08,16,05,22,17.30
2012,08,16,05,23,17.30
2012,08,16,05,24,17.20
2012,08,16,05,25,17.20
2012,08,16,05,26,17.20
2012,08,16,05,27,17.20
2012,08,16,05,28,17.20
2012,08,16,05,29,17.10
2012,08,16,05,30,17.10
2012,08,16,05,31,17.00
2012,08,16,05,32,16.90
2012,08,16,05,33,16.80
2012,08,16,05,34,16.80
2012,08,16,05,35,16.70
2012,08,16,05,36,16.60
2012,08,16,05,37,16.50
2012,08,16,05,38,16.40
2012,08,16,05,39,16.30
2012,08,16,05,40,16.20
2012,08,16,05,41,16.20
2012,08,16,05,42,16.10
2012,08,16,05,43,16.00
2012,08,16,05,44,15.90
2012,08,16,05,45,15.80
2012,08,16,05,46,15.70
2012,08,16,05,47,15.70
2012,08,16,05,48,15.70
2012,08,16,05,49,15.70
2012,08,16,05,50,15.60
2012,08,16,05,51,15.60
2012,08,16,05,52,15.50
2012,08,16,05,53,15.50
2012,08,16,05,54,15.40
2012,08,16,05,55,15.40
2012,08,16,05,56,15.30
2012,08,16,05,57,15.30
2012,08,16,05,58,15.30
2012,08,16,05,59,15.30
2012,08,16,06,00,15.20
2012,08,16,06,01,15.20
2012,08,16,06,02,15.20
2012,08,16,06,03,15.20
2012,08,16,06,04,15.20
2012,08,16,06,05,15.20
2012,08,16,06,06,15.20
2012,08,16,06,07,15.20
2012,08,16,06,08,15.20
2012,08,16,06,09,15.20
2012,08,16,06,10,15.30
2012,08,16,06,11,15.30
2012,08,16,06,12,15.30
2012,08,16,06,13,15.30
2012,08,16,06,14,15.30
2012,08,16,06,15,15.30
2012,08,16,06,16,15.40
2012,08,16,06,17,15.40
2012,08,16,06,18,15.40
2012,08,16,06,19,15.40
2012,08,16,06,20,15.30
2012,08,16,06,21,15.30
2012,08,16,06,22,15.30
2012,08,16,06,23,15.20
2012,08,16,06,24,15.20
2012,08,16,06,25,15.20
2012,08,16,06,26,15.20
2012,08,16,06,27,15.10
2012,08,16,06,28,15.00
2012,08,16,06,29,15.00
2012,08,16,06,30,14.90
2012,08,16,06,31,14.80
2012,08,16,06,32,14.80
2012,08,16,06,33,14.70
2012,08,16,06,34,14.60
2012,08,16,06,35,14.60
2012,08,16,06,36,14.60
2012,08,16,06,37,14.60
2012,08,16,06,38,14.60
2012,08,16,06,39,14.60
2012,08,16,06,40,14.60
2012,08,16,06,41,14.60
2012,08,16,06,42,14.70
2012,08,16,06,43,14.70
2012,08,16,06,44,14.70
2012,08,16,06,45,14.70
2012,08,16,06,46,14.70
2012,08,16,06,47,14.80
2012,08,16,06,48,14.80
2012,08,16,06,49,14.80
2012,08,16,06,50,14.80
2012,08,16,06,51,14.90
2012,08,16,06,52,14.90
2012,08,16,06,53,15.00
2012,08,16,06,54,15.10
2012,08,16,06,55,15.10
2012,08,16,06,56,15.20
2012,08,16,06,57,15.20
2012,08,16,06,58,15.30
2012,08,16,06,59,15.30
2012,08,16,07,00,15.20
2012,08,16,07,01,15.20
2012,08,16,07,02,15.20
2012,08,16,07,03,15.20
2012,08,16,07,04,15.20
2012,08,16,07,05,15.20
2012,08,16,07,06,15.20
2012,08,16,07,07,15.20
2012,08,16,07,08,15.20
2012,08,16,07,09,15.30
2012,08,16,07,10,15.30
2012,08,16,07,11,15.30
2012,08,16,07,12,15.40
2012,08,16,07,13,15.40
2012,08,16,07,14,15.40
2012,08,16,07,15,15.50
2012,08,16,07,16,15.50
2012,08,16,07,17,15.60
2012,08,16,07,18,15.60
2012,08,16,07,19,15.60
2012,08,16,07,20,15.70
2012,08,16,07,21,15.70
2012,08,16,07,22,15.80
2012,08,16,07,23,15.90
2012,08,16,07,24,15.90
2012,08,16,07,25,15.90
2012,08,16,07,26,15.90
2012,08,16,07,27,15.90
2012,08,16,07,28,15.90
2012,08,16,07,29,15.90
2012,08,16,07,30,15.90
2012,08,16,07,31,16.00
2012,08,16,07,32,16.10
2012,08,16,07,33,16.10
2012,08,16,07,34,16.20
2012,08,16,07,35,16.20
2012,08,16,07,36,16.30
2012,08,16,07,37,16.40
2012,08,16,07,38,16.50
2012,08,16,07,39,16.60
2012,08,16,07,40,16.70
2012,08,16,07,41,16.90
2012,08,16,07,42,17.20
2012,08,16,07,43,17.50
2012,08,16,07,44,17.80
2012,08,16,07,45,18.00
2012,08,16,07,46,18.30
2012,08,16,07,47,18.40
2012,08,16,07,48,18.70
2012,08,16,07,49,18.80
2012,08,16,07,50,19.00
2012,08,16,07,51,19.20
2012,08,16,07,52,19.30
2012,08,16,07,53,19.50
2012,08,16,07,54,19.60
2012,08,16,07,55,19.70
2012,08,16,07,56,19.80
2012,08,16,07,57,19.90
2012,08,16,07,58,19.90
2012,08,16,07,59,20.00
2012,08,16,08,00,20.10
2012,08,16,08,01,20.10
2012,08,16,08,02,20.20
2012,08,16,08,03,20.20
2012,08,16,08,04,20.30
2012,08,16,08,05,20.40
2012,08,16,08,06,20.40
2012,08,16,08,07,20.50
2012,08,16,08,08,20.50
2012,08,16,08,09,20.60
2012,08,16,08,10,20.60
2012,08,16,08,11,20.70
2012,08,16,08,12,20.70
2012,08,16,08,13,20.70
2012,08,16,08,14,20.80
2012,08,16,08,15,20.80
2012,08,16,08,16,20.80
2012,08,16,08,17,20.80
2012,08,16,08,18,20.80
2012,08,16,08,19,20.90
2012,08,16,08,20,20.90
2012,08,16,08,21,20.90
2012,08,16,08,22,20.90
2012,08,16,08,23,20.90
2012,08,16,08,24,20.90
2012,08,16,08,25,20.90
2012,08,16,08,26,20.90
2012,08,16,08,27,20.90
2012,08,16,08,28,21.00
2012,08,16,08,29,21.00
2012,08,16,08,30,21.00
2012,08,16,08,31,21.00
2012,08,16,08,32,21.00
2012,08,16,08,33,21.00
2012,08,16,08,34,21.10
2012,08,16,08,35,21.10
2012,08,16,08,36,21.10
2012,08,16,08,37,21.20
2012,08,16,08,38,21.20
2012,08,16,08,39,21.30
2012,08,16,08,40,21.40
2012,08,16,08,41,21.40
2012,08,16,08,42,21.50
2012,08,16,08,43,21.60
2012,08,16,08,44,21.60
2012,08,16,08,45,21.60
2012,08,16,08,46,21.70
2012,08,16,08,47,21.70
2012,08,16,08,48,21.80
2012,08,16,08,49,21.90
2012,08,16,08,50,21.90
2012,08,16,08,51,22.00
2012,08,16,08,52,22.00
2012,08,16,08,53,22.10
2012,08,16,08,54,22.10
2012,08,16,08,55,22.20
2012,08,16,08,56,22.30
2012,08,16,08,57,22.30
2012,08,16,08,58,22.40
2012,08,16,08,59,22.40
2012,08,16,09,00,22.40
2012,08,16,09,01,22.50
2012,08,16,09,02,22.50
2012,08,16,09,03,22.50
2012,08,16,09,04,22.40
2012,08,16,09,05,22.40
2012,08,16,09,06,22.40
2012,08,16,09,07,22.40
2012,08,16,09,08,22.40
2012,08,16,09,09,22.50
2012,08,16,09,10,22.50
2012,08,16,09,11,22.60
2012,08,16,09,12,22.60
2012,08,16,09,13,22.70
2012,08,16,09,14,22.80
2012,08,16,09,15,22.80
2012,08,16,09,16,22.80
2012,08,16,09,17,22.80
2012,08,16,09,18,22.80
2012,08,16,09,19,22.80
2012,08,16,09,20,22.80
2012,08,16,09,21,22.80
2012,08,16,09,22,22.80
2012,08,16,09,23,22.80
2012,08,16,09,24,22.80
2012,08,16,09,25,22.80
2012,08,16,09,26,22.80
2012,08,16,09,27,22.80
2012,08,16,09,28,22.80
2012,08,16,09,29,22.80
2012,08,16,09,30,22.80
2012,08,16,09,31,22.80
2012,08,16,09,32,22.80
2012,08,16,09,33,22.90
2012,08,16,09,34,22.90
2012,08,16,09,35,22.90
2012,08,16,09,36,22.90
2012,08,16,09,37,22.90
2012,08,16,09,38,22.90
2012,08,16,09,39,22.80
2012,08,16,09,40,22.80
2012,08,16,09,41,22.80
2012,08,16,09,42,22.80
2012,08,16,09,43,22.80
2012,08,16,09,44,22.80
2012,08,16,09,45,22.70
2012,08,16,09,46,22.70
2012,08,16,09,47,22.70
2012,08,16,09,48,22.70
2012,08,16,09,49,22.70
2012,08,16,09,50,22.70
2012,08,16,09,51,22.80
2012,08,16,09,52,22.80
2012,08,16,09,53,22.90
2012,08,16,09,54,22.90
2012,08,16,09,55,23.00
2012,08,16,09,56,23.10
2012,08,16,09,57,23.10
2012,08,16,09,58,23.10
2012,08,16,09,59,23.10
2012,08,16,10,00,23.10
2012,08,16,10,01,23.00
2012,08,16,10,02,23.00
2012,08,16,10,03,22.90
2012,08,16,10,04,22.80
2012,08,16,10,05,22.80
2012,08,16,10,06,22.80
2012,08,16,10,07,22.80
2012,08,16,10,08,22.90
2012,08,16,10,09,22.90
2012,08,16,10,10,22.90
2012,08,16,10,11,22.90
2012,08,16,10,12,23.00
2012,08,16,10,13,23.00
2012,08,16,10,14,23.00
2012,08,16,10,15,23.00
2012,08,16,10,16,23.00
2012,08,16,10,17,23.00
2012,08,16,10,18,23.00
2012,08,16,10,19,23.10
2012,08,16,10,20,23.10
2012,08,16,10,21,23.20
2012,08,16,10,22,23.30
2012,08,16,10,23,23.40
2012,08,16,10,24,23.50
2012,08,16,10,25,23.60
2012,08,16,10,26,23.70
2012,08,16,10,27,23.70
2012,08,16,10,28,23.60
2012,08,16,10,29,23.60
2012,08,16,10,30,23.60
2012,08,16,10,31,23.60
2012,08,16,10,32,23.60
2012,08,16,10,33,23.50
2012,08,16,10,34,23.40
2012,08,16,10,35,23.30
2012,08,16,10,36,23.20
2012,08,16,10,37,23.10
2012,08,16,10,38,23.10
2012,08,16,10,39,23.10
2012,08,16,10,40,23.10
2012,08,16,10,41,23.00
2012,08,16,10,42,23.00
2012,08,16,10,43,22.90
2012,08,16,10,44,22.90
2012,08,16,10,45,22.80
2012,08,16,10,46,22.80
2012,08,16,10,47,22.80
2012,08,16,10,48,22.80
2012,08,16,10,49,22.80
2012,08,16,10,50,22.70
2012,08,16,10,51,22.60
2012,08,16,10,52,22.60
2012,08,16,10,53,22.50
2012,08,16,10,54,22.50
2012,08,16,10,55,22.50
2012,08,16,10,56,22.50
2012,08,16,10,57,22.50
2012,08,16,10,58,22.60
2012,08,16,10,59,22.60
2012,08,16,11,00,22.60
2012,08,16,11,01,22.60
2012,08,16,11,02,22.50
2012,08,16,11,03,22.50
2012,08,16,11,04,22.50
2012,08,16,11,05,22.40
2012,08,16,11,06,22.40
2012,08,16,11,07,22.30
2012,08,16,11,08,22.30
2012,08,16,11,09,22.20
2012,08,16,11,10,22.00
2012,08,16,11,11,21.80
2012,08,16,11,12,21.70
2012,08,16,11,13,21.70
2012,08,16,11,14,21.70
2012,08,16,11,15,21.70
2012,08,16,11,16,21.60
2012,08,16,11,17,21.60
2012,08,16,11,18,21.60
2012,08,16,11,19,21.50
2012,08,16,11,20,21.60
2012,08,16,11,21,21.60
2012,08,16,11,22,21.70
2012,08,16,11,23,21.70
2012,08,16,11,24,21.70
2012,08,16,11,25,21.80
2012,08,16,11,26,21.80
2012,08,16,11,27,21.90
2012,08,16,11,28,22.00
2012,08,16,11,29,22.00
2012,08,16,11,30,22.10
2012,08,16,11,31,22.10
2012,08,16,11,32,22.20
2012,08,16,11,33,22.20
2012,08,16,11,34,22.20
2012,08,16,11,35,22.20
2012,08,16,11,36,22.20
2012,08,16,11,37,22.20
2012,08,16,11,38,22.20
2012,08,16,11,39,22.20
2012,08,16,11,40,22.20
2012,08,16,11,41,22.30
2012,08,16,11,42,22.20
2012,08,16,11,43,22.10
2012,08,16,11,44,22.00
2012,08,16,11,45,21.90
2012,08,16,11,46,21.80
2012,08,16,11,47,21.70
2012,08,16,11,48,21.70
2012,08,16,11,49,21.60
2012,08,16,11,50,21.60
2012,08,16,11,51,21.70
2012,08,16,11,52,21.70
2012,08,16,11,53,21.70
2012,08,16,11,54,21.80
2012,08,16,11,55,21.90
2012,08,16,11,56,22.00
2012,08,16,11,57,22.00
2012,08,16,11,58,22.00
2012,08,16,11,59,22.00
2012,08,16,12,00,22.00
2012,08,16,12,01,22.00
2012,08,16,12,02,22.10
2012,08,16,12,03,22.10
2012,08,16,12,04,22.00
2012,08,16,12,05,21.90
2012,08,16,12,06,21.90
2012,08,16,12,07,21.80
2012,08,16,12,08,21.80
2012,08,16,12,09,21.80
2012,08,16,12,10,21.80
2012,08,16,12,11,21.80
2012,08,16,12,12,21.80
2012,08,16,12,13,21.80
2012,08,16,12,14,21.80
2012,08,16,12,15,21.80
2012,08,16,12,16,21.80
2012,08,16,12,17,21.70
2012,08,16,12,18,21.70
2012,08,16,12,19,21.70
2012,08,16,12,20,21.80
2012,08,16,12,21,21.80
2012,08,16,12,22,21.80
2012,08,16,12,23,21.90
2012,08,16,12,24,22.00
2012,08,16,12,25,22.00
2012,08,16,12,26,22.10
2012,08,16,12,27,22.10
2012,08,16,12,28,22.10
2012,08,16,12,29,22.20
2012,08,16,12,30,22.20
2012,08,16,12,31,22.30
2012,08,16,12,32,22.40
2012,08,16,12,33,22.50
2012,08,16,12,34,22.60
2012,08,16,12,35,22.60
2012,08,16,12,36,22.60
2012,08,16,12,37,22.60
2012,08,16,12,38,22.70
2012,08,16,12,39,22.80
2012,08,16,12,40,22.80
2012,08,16,12,41,22.90
2012,08,16,12,42,23.00
2012,08,16,12,43,23.10
2012,08,16,12,44,23.20
2012,08,16,12,45,23.30
2012,08,16,12,46,23.40
2012,08,16,12,47,23.40
2012,08,16,12,48,23.40
2012,08,16,12,49,23.40
2012,08,16,12,50,23.50
2012,08,16,12,51,23.50
2012,08,16,12,52,23.50
2012,08,16,12,53,23.60
2012,08,16,12,54,23.60
2012,08,16,12,55,23.60
2012,08,16,12,56,23.70
2012,08,16,12,57,23.70
2012,08,16,12,58,23.80
2012,08,16,12,59,23.90
2012,08,16,13,00,23.90
2012,08,16,13,01,23.90
2012,08,16,13,02,24.00
2012,08,16,13,03,24.10
2012,08,16,13,04,24.10
2012,08,16,13,05,24.10
2012,08,16,13,06,24.00
2012,08,16,13,07,24.00
2012,08,16,13,08,23.90
2012,08,16,13,09,23.90
2012,08,16,13,10,23.90
2012,08,16,13,11,23.80
2012,08,16,13,12,23.80
2012,08,16,13,13,23.90
2012,08,16,13,14,24.00
2012,08,16,13,15,24.00
2012,08,16,13,16,24.10
2012,08,16,13,17,24.20
2012,08,16,13,18,24.30
2012,08,16,13,19,24.40
2012,08,16,13,20,24.40
2012,08,16,13,21,24.40
2012,08,16,13,22,24.40
2012,08,16,13,23,24.50
2012,08,16,13,24,24.50
2012,08,16,13,25,24.50
2012,08,16,13,26,24.50
2012,08,16,13,27,24.60
2012,08,16,13,28,24.70
2012,08,16,13,29,24.80
2012,08,16,13,30,24.80
2012,08,16,13,31,24.90
2012,08,16,13,32,24.90
2012,08,16,13,33,24.90
2012,08,16,13,34,24.90
2012,08,16,13,35,24.90
2012,08,16,13,36,24.80
2012,08,16,13,37,24.90
2012,08,16,13,38,24.90
2012,08,16,13,39,24.90
2012,08,16,13,40,24.90
2012,08,16,13,41,25.00
2012,08,16,13,42,25.10
2012,08,16,13,43,25.10
2012,08,16,13,44,25.20
2012,08,16,13,45,25.20
2012,08,16,13,46,25.20
2012,08,16,13,47,25.20
2012,08,16,13,48,25.20
2012,08,16,13,49,25.20
2012,08,16,13,50,25.10
2012,08,16,13,51,25.10
2012,08,16,13,52,25.20
2012,08,16,13,53,25.20
2012,08,16,13,54,25.30
2012,08,16,13,55,25.30
2012,08,16,13,56,25.30
2012,08,16,13,57,25.30
2012,08,16,13,58,25.30
2012,08,16,13,59,25.20
2012,08,16,14,00,25.20
2012,08,16,14,01,25.30
2012,08,16,14,02,25.30
2012,08,16,14,03,25.40
2012,08,16,14,04,25.50
2012,08,16,14,05,25.50
2012,08,16,14,06,25.60
2012,08,16,14,07,25.60
2012,08,16,14,08,25.70
2012,08,16,14,09,25.70
2012,08,16,14,10,25.80
2012,08,16,14,11,25.80
2012,08,16,14,12,25.80
2012,08,16,14,13,25.80
2012,08,16,14,14,25.80
2012,08,16,14,15,25.70
2012,08,16,14,16,25.70
2012,08,16,14,17,25.70
2012,08,16,14,18,25.70
2012,08,16,14,19,25.80
2012,08,16,14,20,25.80
2012,08,16,14,21,25.80
2012,08,16,14,22,25.80
2012,08,16,14,23,25.80
2012,08,16,14,24,25.80
2012,08,16,14,25,25.90
2012,08,16,14,26,25.90
2012,08,16,14,27,25.90
2012,08,16,14,28,25.90
2012,08,16,14,29,25.90
2012,08,16,14,30,26.00
2012,08,16,14,31,26.10
2012,08,16,14,32,26.10
2012,08,16,14,33,26.10
2012,08,16,14,34,26.10
2012,08,16,14,35,26.10
2012,08,16,14,36,26.10
2012,08,16,14,37,26.10
2012,08,16,14,38,26.10
2012,08,16,14,39,26.10
2012,08,16,14,40,26.10
2012,08,16,14,41,26.20
2012,08,16,14,42,26.20
2012,08,16,14,43,26.20
2012,08,16,14,44,26.30
2012,08,16,14,45,26.30
2012,08,16,14,46,26.30
2012,08,16,14,47,26.30
2012,08,16,14,48,26.30
2012,08,16,14,49,26.30
2012,08,16,14,50,26.30
2012,08,16,14,51,26.40
2012,08,16,14,52,26.40
2012,08,16,14,53,26.40
2012,08,16,14,54,26.40
2012,08,16,14,55,26.40
2012,08,16,14,56,26.40
2012,08,16,14,57,26.50
2012,08,16,14,58,26.50
2012,08,16,14,59,26.50
2012,08,16,15,00,26.50
2012,08,16,15,01,26.50
2012,08,16,15,02,26.50
2012,08,16,15,03,26.50
2012,08,16,15,04,26.60
2012,08,16,15,05,26.60
2012,08,16,15,06,26.60
2012,08,16,15,07,26.60
2012,08,16,15,08,26.60
2012,08,16,15,09,26.50
2012,08,16,15,10,26.40
2012,08,16,15,11,26.40
2012,08,16,15,12,26.30
2012,08,16,15,13,26.30
2012,08,16,15,14,26.30
2012,08,16,15,15,26.30
2012,08,16,15,16,26.30
2012,08,16,15,17,26.30
2012,08,16,15,18,26.30
2012,08,16,15,19,26.30
2012,08,16,15,20,26.30
2012,08,16,15,21,26.30
2012,08,16,15,22,26.30
2012,08,16,15,23,26.30
2012,08,16,15,24,26.30
2012,08,16,15,25,26.30
2012,08,16,15,26,26.30
2012,08,16,15,27,26.30
2012,08,16,15,28,26.30
2012,08,16,15,29,26.30
2012,08,16,15,30,26.30
2012,08,16,15,31,26.30
2012,08,16,15,32,26.40
2012,08,16,15,33,26.40
2012,08,16,15,34,26.50
2012,08,16,15,35,26.60
2012,08,16,15,36,26.70
2012,08,16,15,37,26.70
2012,08,16,15,38,26.80
2012,08,16,15,39,26.80
2012,08,16,15,40,26.90
2012,08,16,15,41,27.00
2012,08,16,15,42,27.00
2012,08,16,15,43,27.10
2012,08,16,15,44,27.10
2012,08,16,15,45,27.10
2012,08,16,15,46,27.20
2012,08,16,15,47,27.20
2012,08,16,15,48,27.30
2012,08,16,15,49,27.30
2012,08,16,15,50,27.40
2012,08,16,15,51,27.40
2012,08,16,15,52,27.50
2012,08,16,15,53,27.50
2012,08,16,15,54,27.50
2012,08,16,15,55,27.50
2012,08,16,15,56,27.50
2012,08,16,15,57,27.50
2012,08,16,15,58,27.50
2012,08,16,15,59,27.50
2012,08,16,16,00,27.60
2012,08,16,16,01,27.60
2012,08,16,16,02,27.60
2012,08,16,16,03,27.70
2012,08,16,16,04,27.70
2012,08,16,16,05,27.80
2012,08,16,16,06,27.80
2012,08,16,16,07,27.90
2012,08,16,16,08,27.90
2012,08,16,16,09,27.90
2012,08,16,16,10,27.90
2012,08,16,16,11,27.80
2012,08,16,16,12,27.80
2012,08,16,16,13,27.90
2012,08,16,16,14,27.90
2012,08,16,16,15,28.00
2012,08,16,16,16,28.10
2012,08,16,16,17,28.10
2012,08,16,16,18,28.10
2012,08,16,16,19,28.10
2012,08,16,16,20,28.10
2012,08,16,16,21,28.10
2012,08,16,16,22,28.20
2012,08,16,16,23,28.20
2012,08,16,16,24,28.20
2012,08,16,16,25,28.20
2012,08,16,16,26,28.30
2012,08,16,16,27,28.30
2012,08,16,16,28,28.30
2012,08,16,16,29,28.40
2012,08,16,16,30,28.40
2012,08,16,16,31,28.40
2012,08,16,16,32,28.50
2012,08,16,16,33,28.50
2012,08,16,16,34,28.60
2012,08,16,16,35,28.60
2012,08,16,16,36,28.60
2012,08,16,16,37,28.60
2012,08,16,16,38,28.60
2012,08,16,16,39,28.60
2012,08,16,16,40,28.60
2012,08,16,16,41,28.60
2012,08,16,16,42,28.70
2012,08,16,16,43,28.70
2012,08,16,16,44,28.70
2012,08,16,16,45,28.70
2012,08,16,16,46,28.70
2012,08,16,16,47,28.60
2012,08,16,16,48,28.60
2012,08,16,16,49,28.60
2012,08,16,16,50,28.70
2012,08,16,16,51,28.70
2012,08,16,16,52,28.70
2012,08,16,16,53,28.70
2012,08,16,16,54,28.70
2012,08,16,16,55,28.70
2012,08,16,16,56,28.60
2012,08,16,16,57,28.60
2012,08,16,16,58,28.60
2012,08,16,16,59,28.60
2012,08,16,17,00,28.60
2012,08,16,17,01,28.60
2012,08,16,17,02,28.50
2012,08,16,17,03,28.50
2012,08,16,17,04,28.50
2012,08,16,17,05,28.40
2012,08,16,17,06,28.40
2012,08,16,17,07,28.40
2012,08,16,17,08,28.40
2012,08,16,17,09,28.40
2012,08,16,17,10,28.40
2012,08,16,17,11,28.40
2012,08,16,17,12,28.40
2012,08,16,17,13,28.40
2012,08,16,17,14,28.40
2012,08,16,17,15,28.40
2012,08,16,17,16,28.40
2012,08,16,17,17,28.40
2012,08,16,17,18,28.40
2012,08,16,17,19,28.40